Tracking 23752 objects as of 23-Oct-2021
HD Live streaming from Space Station
objects crossing your sky now

COSMOS 1382 DEB

Track COSMOS 1382 DEB now!


NORAD ID: 27903
Int'l Code: 1982-064E
Perigee: 3,724.8 km
Apogee: 37,450.6 km
Inclination: 68.3 °
Period: 734.2 minutes
Semi major axis: 26958 km
RCS: 0.3202 m2 (medium)
Launch date: June 25, 1982
Source: Commonwealth of Independent States (former USSR) (CIS)
Launch site: PLESETSK MISSILE AND SPACE COMPLEX (PKMTR)

Note: This is SATELLITE DEBRIS
aabbcc
Your satellite tracking list
Your tracking list is empty




NASA's NSSDC Master Catalog

Two Line Element Set (TLE):
1 27903U 82064E   21296.40796221 -.00000012  00000-0  00000+0 0  9995
2 27903  68.3208  25.5381 6255099  19.3174 356.4786  1.96134714137584
Source of the keplerian elements: AFSPC